NW Arkansas Airport, AR

1:07 PM CDT on June 28, 2017 (GMT -0500)
Northwest Arkansas Regional

Weather History for KXNA - November, 2013

Change the Weather History Date:

Wednesday, November 6, 2013

  Actual Average (KVBT) Record (KVBT)
Temperature  
Mean Temperature 48 °F -  
Max Temperature 61 °F 59 °F 78 °F (1978)
Min Temperature 33 °F 35 °F 15 °F (1959)
Degree Days  
Heating Degree Days 18    
Moisture  
Dew Point 45 °F    
Average Humidity 93    
Maximum Humidity 100    
Minimum Humidity 76    
Precipitation  
Precipitation 0.32 in - - ()
Sea Level Pressure  
Sea Level Pressure 30.11 in    
Wind  
Wind Speed 10 mph (NW)    
Max Wind Speed 16 mph    
Max Gust Speed 25 mph    
Visibility 8 miles    
Events Rain    
Averages and records for this station are not official NWS values.
T = Trace of Precipitation, MM = Missing Value Source: NWS Daily Summary

Daily Weather History Graph

Daily Weather History Graph

Search for Another Location

Airport or City:

Trip Planner

Search our weather history database for the weather conditions in past years. The results will help you decide how hot, cold, wet, or windy it might be!

Date:

Astronomy

Nov. 06, 2013 Rise Set
Actual Time 6:45 AM CST 5:15 PM CST
Civil Twilight 6:18 AM CST 5:42 PM CST
Nautical Twilight 5:47 AM CST 6:13 PM CST
Astronomical Twilight 5:17 AM CST 6:43 PM CST
Moon 9:58 AM CST (11/6) 8:23 PM CST (11/6)
Length of Visible Light 11h 24m
Length of Day
10h 30m
Waxing Crescent, 14% of the Moon is Illuminated
Nov 6
Waxing Crescent
Nov 9
First Quarter
Nov 17
Full
Nov 25
Last Quarter
Dec 2
New

Hourly Weather History & Observations

Time (CST) Temp. Windchill Dew Point Humidity Pressure Visibility Wind Dir Wind Speed Gust Speed Precip Events Conditions
12:18 AM 60.8 °F - 60.8 °F 100% 29.95 in 7.0 mi South 6.9 mph - 0.04 in Rain Light Rain
12:53 AM 60.1 °F - 60.1 °F 100% 29.93 in 8.0 mi South 9.2 mph - 0.07 in Rain Light Rain
1:02 AM 60.8 °F - 60.8 °F 100% 29.94 in 8.0 mi South 9.2 mph - 0.01 in Rain Light Rain
1:38 AM 60.8 °F - 60.8 °F 100% 29.91 in 7.0 mi South 16.1 mph - 0.06 in Rain Light Rain
1:46 AM 60.8 °F - 60.8 °F 100% 29.90 in 9.0 mi South 12.7 mph - 0.06 in Rain Light Rain
1:53 AM 61.0 °F - 60.1 °F 97% 29.89 in 10.0 mi South 15.0 mph - 0.07 in Rain Light Rain
2:09 AM 60.8 °F - 60.8 °F 100% 29.90 in 10.0 mi South 10.4 mph - 0.00 in Rain Light Rain
2:21 AM 60.8 °F - 60.8 °F 100% 29.91 in 10.0 mi South 11.5 mph - 0.00 in Rain Light Rain
2:33 AM 60.8 °F - 60.8 °F 100% 29.91 in 10.0 mi South 10.4 mph - 0.00 in   Overcast
2:50 AM 59.0 °F - 57.2 °F 94% 29.94 in 1.8 mi WNW 10.4 mph 25.3 mph 0.14 in Rain Heavy Rain
2:53 AM 59.0 °F - 57.9 °F 96% 29.93 in 1.8 mi WNW 8.1 mph 25.3 mph 0.15 in Rain Heavy Rain
2:56 AM 59.0 °F - 59.0 °F 100% 29.95 in 2.5 mi WNW 9.2 mph - 0.01 in Rain Rain
3:03 AM 59.0 °F - 59.0 °F 100% 29.96 in 7.0 mi West 11.5 mph - 0.01 in Rain Light Rain
3:53 AM 53.1 °F - 53.1 °F 100% 29.97 in 10.0 mi NNW 11.5 mph - 0.03 in   Overcast
4:53 AM 50.0 °F - 50.0 °F 100% 29.99 in 10.0 mi WNW 13.8 mph 18.4 mph N/A   Overcast
5:32 AM 46.4 °F 40.7 °F 46.4 °F 100% 30.04 in 10.0 mi WNW 12.7 mph - 0.00 in   Overcast
5:53 AM 46.0 °F 39.9 °F 46.0 °F 100% 30.04 in 9.0 mi NW 13.8 mph 20.7 mph 0.00 in   Overcast
6:29 AM 44.6 °F 38.8 °F 44.6 °F 100% 30.06 in 1.8 mi NW 11.5 mph - 0.00 in   Overcast
6:39 AM 44.6 °F 39.2 °F 44.6 °F 100% 30.07 in 3.0 mi NW 10.4 mph - 0.00 in   Overcast
6:53 AM 43.0 °F 36.0 °F 43.0 °F 100% 30.07 in 8.0 mi NNW 13.8 mph 20.7 mph 0.00 in   Overcast
7:53 AM 42.1 °F 36.6 °F 41.0 °F 96% 30.11 in 8.0 mi NNW 9.2 mph - N/A   Overcast
8:43 AM 41.0 °F 32.8 °F 39.2 °F 93% 30.16 in 9.0 mi NW 16.1 mph 19.6 mph N/A   Overcast
8:50 AM 41.0 °F 34.7 °F 39.2 °F 93% 30.16 in 6.0 mi NW 10.4 mph 19.6 mph N/A   Overcast
8:53 AM 41.0 °F 34.7 °F 39.9 °F 96% 30.16 in 6.0 mi NW 10.4 mph - N/A   Overcast
9:28 AM 41.0 °F 33.5 °F 39.2 °F 93% 30.17 in 10.0 mi NNW 13.8 mph 20.7 mph N/A   Overcast
9:53 AM 39.9 °F 32.9 °F 39.0 °F 97% 30.18 in 10.0 mi NW 11.5 mph - N/A   Overcast
10:53 AM 41.0 °F 35.2 °F 39.0 °F 93% 30.20 in 10.0 mi NNW 9.2 mph - N/A   Overcast
11:53 AM 41.0 °F 33.9 °F 37.9 °F 89% 30.21 in 10.0 mi NNW 12.7 mph - N/A   Overcast
12:13 PM 41.0 °F 34.7 °F 37.4 °F 87% 30.21 in 10.0 mi NW 10.4 mph 17.3 mph N/A   Overcast
12:53 PM 42.1 °F 36.1 °F 37.0 °F 82% 30.22 in 10.0 mi NNW 10.4 mph - N/A   Overcast
1:53 PM 42.1 °F 35.7 °F 37.0 °F 82% 30.22 in 10.0 mi NNW 11.5 mph - N/A   Overcast
2:17 PM 42.8 °F 36.2 °F 37.4 °F 81% 30.23 in 10.0 mi NW 12.7 mph - N/A   Overcast
2:53 PM 43.0 °F 37.2 °F 37.0 °F 80% 30.23 in 10.0 mi NNW 10.4 mph - N/A   Overcast
3:53 PM 44.1 °F 38.6 °F 37.0 °F 76% 30.25 in 10.0 mi NNW 10.4 mph - N/A   Overcast
4:53 PM 43.0 °F 36.8 °F 36.0 °F 76% 30.26 in 10.0 mi NNW 11.5 mph 19.6 mph N/A   Overcast
5:53 PM 42.1 °F 37.7 °F 35.1 °F 76% 30.29 in 10.0 mi North 6.9 mph - N/A   Overcast
6:18 PM 39.2 °F 34.2 °F 33.8 °F 81% 30.28 in 10.0 mi North 6.9 mph - N/A   Scattered Clouds
6:53 PM 37.0 °F 31.6 °F 33.1 °F 86% 30.31 in 10.0 mi NNW 6.9 mph - N/A   Clear
7:53 PM 37.0 °F 31.6 °F 33.1 °F 86% 30.32 in 10.0 mi NNW 6.9 mph - N/A   Clear
8:53 PM 35.1 °F 29.3 °F 32.0 °F 89% 30.34 in 10.0 mi NNW 6.9 mph - N/A   Clear
9:53 PM 34.0 °F 28.8 °F 32.0 °F 92% 30.36 in 10.0 mi NNW 5.8 mph - N/A   Clear
10:53 PM 34.0 °F 31.0 °F 32.0 °F 92% 30.37 in 10.0 mi NNW 3.5 mph - N/A   Clear
11:53 PM 33.1 °F 28.7 °F 32.0 °F 96% 30.38 in 10.0 mi NNW 4.6 mph - N/A   Clear